Weather History for K2W6 - February, 2012

Change the Weather History Date:

Monday, February 20, 2012

  Actual Average (KNHK) Record (KNHK)
Temperature  
Mean Temperature 38 °F -  
Max Temperature 44 °F 48 °F 51 °F (2014)
Min Temperature 32 °F 30 °F 1 °F (2015)
Degree Days  
Heating Degree Days 27    
Moisture  
Dew Point 29 °F    
Average Humidity 76    
Maximum Humidity 100    
Minimum Humidity 46    
Precipitation  
Precipitation 0.00 in - - ()
Sea Level Pressure  
Sea Level Pressure 30.17 in    
Wind  
Wind Speed 4 mph (NNW)    
Max Wind Speed 9 mph    
Max Gust Speed 17 mph    
Visibility 9 miles    
Events      
Averages and records for this station are not official NWS values.
T = Trace of Precipitation, MM = Missing Value Source: NWS Daily Summary

Daily Weather History Graph

Daily Weather History Graph

Search for Another Location

Airport or City:

Trip Planner

Search our weather history database for the weather conditions in past years. The results will help you decide how hot, cold, wet, or windy it might be!

Date:

Astronomy

Feb. 20, 2012 Rise Set
Actual Time 6:51 AM EST 5:49 PM EST
Civil Twilight 6:24 AM EST 6:16 PM EST
Nautical Twilight 5:53 AM EST 6:47 PM EST
Astronomical Twilight 5:22 AM EST 7:17 PM EST
Moon 5:46 AM EST (2/20) 4:52 PM EST (2/20)
Length of Visible Light 11h 52m
Length of Day
10h 58m
Waning Crescent, 2% of the Moon is Illuminated
Feb 20
Waning Crescent
Feb 21
New
Feb 29
First Quarter
Mar 8
Full
Mar 14
Last Quarter

Hourly Weather History & Observations

Time (EST) Temp. Windchill Dew Point Humidity Pressure Visibility Wind Dir Wind Speed Gust Speed Precip Events Conditions
12:00 AM 32.0 °F 24.2 °F 32.0 °F 100% 29.96 in 1.8 mi NE 9.2 mph 17.3 mph N/A   Overcast
12:21 AM 32.0 °F 27.5 °F 32.0 °F 100% 29.96 in 1.8 mi ENE 4.6 mph - N/A   Overcast
12:43 AM 32.0 °F 28.7 °F 32.0 °F 100% 29.96 in 2.5 mi East 3.5 mph - N/A   Overcast
1:04 AM 32.0 °F 28.7 °F 32.0 °F 100% 29.96 in 7.0 mi East 3.5 mph - N/A   Overcast
1:25 AM 32.0 °F - 32.0 °F 100% 29.96 in 10.0 mi Calm Calm - N/A   Overcast
1:47 AM 32.0 °F - 32.0 °F 100% 29.96 in 10.0 mi Calm Calm - N/A   Overcast
2:08 AM 32.0 °F - 32.0 °F 100% 29.96 in 7.0 mi Calm Calm - N/A   Overcast
2:29 AM 32.0 °F 27.5 °F 32.0 °F 100% 29.96 in 10.0 mi West 4.6 mph - N/A   Overcast
2:51 AM 32.0 °F 26.4 °F 32.0 °F 100% 29.96 in 7.0 mi WNW 5.8 mph - N/A   Overcast
3:12 AM 32.0 °F 27.5 °F 32.0 °F 100% 29.97 in 7.0 mi West 4.6 mph - N/A   Overcast
3:33 AM 32.0 °F 27.5 °F 32.0 °F 100% 29.98 in 7.0 mi West 4.6 mph - N/A   Overcast
3:55 AM 32.0 °F - 32.0 °F 100% 29.99 in 7.0 mi Calm Calm - N/A   Overcast
4:16 AM 33.8 °F - 32.0 °F 93% 29.99 in 10.0 mi Calm Calm - N/A   Overcast
4:37 AM 33.8 °F 30.8 °F 32.0 °F 93% 30.00 in 10.0 mi NNW 3.5 mph - N/A   Overcast
4:59 AM 33.8 °F 30.8 °F 30.2 °F 87% 30.01 in 10.0 mi North 3.5 mph - N/A   Overcast
5:20 AM 33.8 °F 30.8 °F 30.2 °F 87% 30.03 in 10.0 mi NNW 3.5 mph - N/A   Mostly Cloudy
5:41 AM 33.8 °F - 30.2 °F 87% 30.04 in 10.0 mi Calm Calm - N/A   Overcast
6:03 AM 33.8 °F 30.8 °F 28.4 °F 81% 30.05 in 10.0 mi NNW 3.5 mph - N/A   Mostly Cloudy
6:24 AM 33.8 °F - 28.4 °F 81% 30.06 in 10.0 mi Calm Calm - N/A   Scattered Clouds
6:45 AM 33.8 °F 30.8 °F 28.4 °F 81% 30.08 in 10.0 mi NNW 3.5 mph - N/A   Clear
7:07 AM 33.8 °F - 28.4 °F 81% 30.10 in 10.0 mi Calm Calm - N/A   Clear
7:28 AM 32.0 °F - 28.4 °F 87% 30.11 in 10.0 mi Calm Calm - N/A   Clear
7:49 AM 33.8 °F 30.8 °F 28.4 °F 81% 30.13 in 10.0 mi NNW 3.5 mph - N/A   Clear
8:10 AM 33.8 °F 30.8 °F 28.4 °F 81% 30.15 in 10.0 mi NW 3.5 mph - N/A   Clear
8:32 AM 33.8 °F 29.6 °F 26.6 °F 75% 30.17 in 10.0 mi NNW 4.6 mph - N/A   Clear
8:53 AM 33.8 °F 30.8 °F 26.6 °F 75% 30.19 in 10.0 mi North 3.5 mph - N/A   Clear
9:14 AM 35.6 °F 31.7 °F 26.6 °F 70% 30.19 in 10.0 mi North 4.6 mph - N/A   Clear
9:36 AM 35.6 °F 32.8 °F 28.4 °F 75% 30.21 in 10.0 mi NNW 3.5 mph - N/A   Clear
9:57 AM 35.6 °F 30.7 °F 26.6 °F 70% 30.22 in 10.0 mi North 5.8 mph - N/A   Clear
10:18 AM 37.4 °F 34.9 °F 26.6 °F 65% 30.24 in 10.0 mi NNW 3.5 mph - N/A   Scattered Clouds
10:39 AM 37.4 °F 32.8 °F 26.6 °F 65% 30.25 in 10.0 mi NNW 5.8 mph - N/A   Scattered Clouds
11:01 AM 37.4 °F 33.8 °F 26.6 °F 65% 30.25 in 10.0 mi NW 4.6 mph - N/A   Scattered Clouds
11:22 AM 37.4 °F 32.1 °F 26.6 °F 65% 30.26 in 10.0 mi WNW 6.9 mph - N/A   Scattered Clouds
11:43 AM 39.2 °F 33.0 °F 26.6 °F 61% 30.27 in 10.0 mi WNW 9.2 mph - N/A   Clear
12:05 PM 41.0 °F 35.8 °F 26.6 °F 57% 30.26 in 10.0 mi NW 8.1 mph - N/A   Clear
12:26 PM 41.0 °F 36.4 °F 26.6 °F 57% 30.26 in 10.0 mi North 6.9 mph - N/A   Clear
12:47 PM 41.0 °F 35.2 °F 26.6 °F 57% 30.26 in 10.0 mi WNW 9.2 mph 16.1 mph N/A   Clear
1:09 PM 42.8 °F 37.5 °F 24.8 °F 49% 30.25 in 10.0 mi WNW 9.2 mph - N/A   Clear
1:30 PM 42.8 °F 38.0 °F 24.8 °F 49% 30.25 in 10.0 mi NNW 8.1 mph - N/A   Clear
1:51 PM 42.8 °F 39.3 °F 23.0 °F 46% 30.24 in 10.0 mi NW 5.8 mph - N/A   Clear
2:12 PM 44.6 °F 40.7 °F 24.8 °F 46% 30.24 in 10.0 mi NNW 6.9 mph - N/A   Clear
2:34 PM 44.6 °F 43.1 °F 24.8 °F 46% 30.23 in 10.0 mi North 3.5 mph - N/A   Clear
2:55 PM 42.8 °F 41.1 °F 26.6 °F 53% 30.24 in 10.0 mi North 3.5 mph - N/A   Clear
3:16 PM 44.6 °F 42.2 °F 26.6 °F 49% 30.24 in 10.0 mi NE 4.6 mph - N/A   Clear
3:38 PM 42.8 °F 41.1 °F 26.6 °F 53% 30.25 in 10.0 mi NE 3.5 mph - N/A   Clear
3:59 PM 44.6 °F - 26.6 °F 49% 30.25 in 10.0 mi Calm Calm - N/A   Clear
4:20 PM 44.6 °F - 26.6 °F 49% 30.26 in 10.0 mi Calm Calm - N/A   Clear
4:41 PM 44.6 °F - 26.6 °F 49% 30.27 in 10.0 mi Calm Calm - N/A   Scattered Clouds
5:03 PM 44.6 °F - 26.6 °F 49% 30.27 in 10.0 mi Calm Calm - N/A   Clear
5:24 PM 42.8 °F 41.1 °F 28.4 °F 57% 30.28 in 10.0 mi ENE 3.5 mph - N/A   Clear
5:45 PM 41.0 °F - 28.4 °F 61% 30.29 in 10.0 mi Calm Calm - N/A   Clear
6:07 PM 37.4 °F - 28.4 °F 70% 30.29 in 10.0 mi Calm Calm - N/A   Clear
6:28 PM 35.6 °F - 30.2 °F 81% 30.31 in 10.0 mi Calm Calm - N/A   Clear
6:49 PM 35.6 °F - 28.4 °F 75% 30.31 in 10.0 mi Calm Calm - N/A   Clear
7:11 PM 33.8 °F - 30.2 °F 87% 30.32 in 10.0 mi Calm Calm - N/A   Clear
7:32 PM 33.8 °F - 30.2 °F 87% 30.32 in 10.0 mi Calm Calm - N/A   Clear
7:53 PM 32.0 °F - 30.2 °F 93% 30.33 in 10.0 mi Calm Calm - N/A   Clear
8:14 PM 32.0 °F - 28.4 °F 87% 30.34 in 10.0 mi Calm Calm - N/A   Clear
8:36 PM 32.0 °F - 28.4 °F 87% 30.34 in 10.0 mi Calm Calm - N/A   Clear
8:57 PM 32.0 °F - 28.4 °F 87% 30.35 in 10.0 mi Calm Calm - N/A   Clear
9:18 PM 32.0 °F - 28.4 °F 87% 30.36 in 10.0 mi Calm Calm - N/A   Clear
9:40 PM 32.0 °F - 26.6 °F 80% 30.36 in 10.0 mi Calm Calm - N/A   Clear
10:01 PM 32.0 °F - 26.6 °F 80% 30.36 in 10.0 mi Calm Calm - N/A   Clear
10:22 PM 30.2 °F - 26.6 °F 86% 30.37 in 10.0 mi Calm Calm - N/A   Clear
10:44 PM 30.2 °F - 26.6 °F 86% 30.37 in 10.0 mi Calm Calm - N/A   Clear
11:05 PM 30.2 °F - 26.6 °F 86% 30.37 in 10.0 mi Calm Calm - N/A   Clear
11:26 PM 30.2 °F - 26.6 °F 86% 30.37 in 10.0 mi Calm Calm - N/A   Clear
11:48 PM 30.2 °F - 26.6 °F 86% 30.37 in 10.0 mi Calm Calm - N/A   Clear